sat.trackr.live / text

‹ back to catalog

STARLINK-4382

NORAD 53194 · 2022-084F

PAYLOAD ACTIVE UNKNOWN

§ Identity

Operator
Country
US
Launch date
2022-07-22
Launch site
AFWTR
Launch vehicle
Mass (kg)
RCS (m²)

Purposes: comms

External: N2YO · Heavens-Above · Gunter

§ Orbital elements

Epoch: 2026-09-20T02:06:10.675584Z

Period
93.91 min
Inclination
97.2838°
Eccentricity
0.0001540
Mean motion
15.33436610 rev/d
Perigee alt
464.5 km
Apogee alt
466.6 km
Semi-major
6,843.7 km
B*
3.0423e-5
RAAN
318.8213°
Arg perigee
91.4807°
Mean anomaly
268.6613°
Rev number
22,868

§ Raw data

STARLINK-43821 53194U 22084F   26263.08762356  .00000907  00000+0  30423-4 0  99952 53194  97.2838 318.8213 0001540  91.4807 268.6613 15.33436610228686

JSON: /api/v1/satellites/53194 · /tle

For live sub-satellite position, see the globe view (requires WebGL).

§ Visibility from observer

Set your observer location to see the next 7 days of passes ≥ 10°. The values pass through the URL so the page stays shareable.

No JS? Fill the form by hand. The geolocation button needs JavaScript.